Flag for Germany Weather past 2 weeks in Potsdam, Brandenburg, Germany

Now
44 °F

Sprinkles. Overcast.


Feels Like: 38 °F
Forecast: 35 / 44 °F
Wind: 10 mph from West

Location: Potsdam

Current Time: Dec 20, 2014 at 3:12:25 PM

Latest Report: Dec 20, 2014 at 3:00 PM


Visibility: 9 mi

Pressure: 29.78 "Hg

Humidity: 76%

Dew point: 37 °F

Location of PotsdamLocation

Historic Weather in Potsdam — Graph

°F

Potsdam temperature yesterday

Maximum temperature yesterday: 53 °F (at 2:00 AM)
Minimum temperature yesterday: 42 °F (at 11:00 PM)
Average temperature yesterday: 50 °F

Past Weeks' High & Low Weather Summary

 TemperatureHumidityPressure
High53 °F (Dec 19, 2:00 AM)100% (Dec 7, 10:00 AM)30.39 "Hg (Dec 7, 10:00 AM)
Low28 °F (Dec 9, 5:00 AM)70% (Dec 20, 12:00 PM)29.38 "Hg (Dec 12, 6:00 PM)
Average39 °F91%29.91 "Hg
* Reported Dec 5 1:00 PM — Dec 20 1:00 PM, Potsdam, Weather by CustomWeather, © 2014

Note: Actual official high and low records may vary slightly from our data, if they occured in-between our weather recording intervals... More about our weather records

Advertising

Potsdam weather history for previous 24 hours

 ConditionsComfort  
Time TempWeatherWind HumidityBarometerVisibility
1:00 PM
Dec 20
44 °FOvercast.12 mph71%29.80 "Hg22 mi
12:00 PM44 °FOvercast.12 mph70%29.83 "Hg22 mi
11:00 AM44 °FOvercast.10 mph74%29.85 "Hg19 mi
10:00 AM44 °FOvercast.10 mph73%29.88 "Hg18 mi
9:00 AM43 °FOvercast.10 mph73%29.89 "Hg18 mi
8:00 AM43 °FOvercast.10 mph73%29.90 "Hg16 mi
7:00 AM42 °FPassing clouds.9 mph76%29.90 "Hg28 mi
6:00 AM43 °FOvercast.10 mph75%29.91 "Hg28 mi
5:00 AM43 °FOvercast.12 mph75%29.90 "Hg28 mi
4:00 AM42 °FOvercast.9 mph79%29.90 "Hg25 mi
3:00 AM42 °FOvercast.10 mph80%29.91 "Hg25 mi
2:00 AM40 °FPassing clouds.9 mph86%29.90 "Hg25 mi
1:00 AM39 °FPassing clouds.9 mph93%29.90 "Hg25 mi
12:00 AM42 °FPassing clouds.12 mph81%29.88 "Hg28 mi
11:00 PM
Dec 19
42 °FPassing clouds.12 mph81%29.86 "Hg28 mi
10:00 PM42 °FClear.9 mph84%29.85 "Hg28 mi
9:00 PM44 °FPassing clouds.9 mph84%29.83 "Hg28 mi
8:00 PM46 °FOvercast.9 mph85%29.81 "Hg28 mi
7:00 PM46 °FPassing clouds.8 mph89%29.77 "Hg28 mi
6:00 PM47 °FLow clouds.8 mph95%29.75 "Hg28 mi
5:00 PM47 °FOvercast.7 mph96%29.71 "Hg25 mi
4:00 PM47 °FDrizzle. Overcast.6 mph96%29.70 "Hg19 mi
3:00 PM50 °FLow clouds.7 mph94%29.69 "Hg19 mi
Weather by CustomWeather, © 2014

See weather overviewHow to use our weather pages